SP6FIG-13 Weather Reports


time (UTC)temp
C
wind
direction
speed
KPH
gust
KPH
rain 1hr
cm
rain 24hr
cm
rain mn
cm
humidity
%
barometer
mb
20260502214423 22 0.0 0.0 0.00 0.00 0.00 35 1019.7
20260502213923 22 0.0 0.0 0.00 0.00 0.00 36 1019.6
20260502213423 22 0.0 0.0 0.00 0.00 0.00 35 1019.7
20260502212923 22 0.0 0.0 0.00 0.00 0.00 35 1019.7
20260502212423 22 0.0 0.0 0.00 0.00 0.00 36 1019.8
20260502211923 22 0.0 0.0 0.00 0.00 0.00 35 1019.7
20260502211423 22 0.0 0.0 0.00 0.00 0.00 35 1019.6
20260502210923 22 0.0 0.0 0.00 0.00 0.00 35 1019.6
20260502210423 22 0.0 0.0 0.00 0.00 0.00 35 1019.9
20260502205923 22 0.0 0.0 0.00 0.00 0.00 36 1019.9
20260502205423 22 0.0 0.0 0.00 0.00 0.00 35 1019.9
20260502204923 22 0.0 0.0 0.00 0.00 0.00 35 1019.8
20260502204423 22 0.0 0.0 0.00 0.00 0.00 34 1019.9
20260502203923 22 0.0 0.0 0.00 0.00 0.00 33 1019.9
20260502203423 22 0.0 0.0 0.00 0.00 0.00 33 1019.9
20260502202923 22 0.0 0.0 0.00 0.00 0.00 33 1020.2
20260502202423 22 0.0 0.0 0.00 0.00 0.00 33 1020.5
20260502201923 23 0.0 0.0 0.00 0.00 0.00 34 1020.0
20260502201423 23 0.0 0.0 0.00 0.00 0.00 34 1019.9
20260502200923 23 0.0 0.0 0.00 0.00 0.00 34 1020.1
20260502200423 23 0.0 0.0 0.00 0.00 0.00 34 1019.6
20260502195923 23 0.0 0.0 0.00 0.00 0.00 33 1020.0
20260502195423 23 0.0 0.0 0.00 0.00 0.00 34 1019.9
20260502194923 23 0.0 0.0 0.00 0.00 0.00 33 1020.3
20260502194423 23 0.0 0.0 0.00 0.00 0.00 33 1019.9
20260502193923 23 0.0 0.0 0.00 0.00 0.00 32 1019.9
20260502193424 23 0.0 0.0 0.00 0.00 0.00 33 1020.4
20260502192923 23 0.0 0.0 0.00 0.00 0.00 32 1019.8
20260502192423 23 0.0 0.0 0.00 0.00 0.00 32 1020.2
20260502191923 23 0.0 0.0 0.00 0.00 0.00 33 1020.3
20260502191423 23 0.0 0.0 0.00 0.00 0.00 32 1019.8
20260502190923 23 0.0 0.0 0.00 0.00 0.00 32 1020.0
20260502190423 23 0.0 0.0 0.00 0.00 0.00 32 1019.9
20260502185923 23 0.0 0.0 0.00 0.00 0.00 32 1020.1
20260502185423 23 0.0 0.0 0.00 0.00 0.00 32 1019.8
20260502184923 23 0.0 0.0 0.00 0.00 0.00 32 1020.0
20260502184423 22 0.0 0.0 0.00 0.00 0.00 32 1020.1
20260502183923 22 0.0 0.0 0.00 0.00 0.00 31 1019.7
20260502183423 22 0.0 0.0 0.00 0.00 0.00 31 1018.3
20260502182922 21 0.0 0.0 0.00 0.00 0.00 27 1022.0
20260502182422 22 0.0 0.0 0.00 0.00 0.00 27 1021.1
20260502181923 23 0.0 0.0 0.00 0.00 0.00 32 1020.1
20260502181422 23 0.0 0.0 0.00 0.00 0.00 32 1019.8
20260502180922 23 0.0 0.0 0.00 0.00 0.00 32 1019.8
20260502180422 23 0.0 0.0 0.00 0.00 0.00 32 1019.9
20260502170422 23 0.0 0.0 0.00 0.00 0.00 30 1020.0
20260502163922 23 0.0 0.0 0.00 0.00 0.00 24 1020.1
20260502163422 23 0.0 0.0 0.00 0.00 0.00 27 1020.2
20260502162922 23 0.0 0.0 0.00 0.00 0.00 27 1020.4
20260502162422 23 0.0 0.0 0.00 0.00 0.00 24 1020.5
20260502161922 23 0.0 0.0 0.00 0.00 0.00 25 1020.1
20260502161423 23 0.0 0.0 0.00 0.00 0.00 26 1020.5
20260502160922 23 0.0 0.0 0.00 0.00 0.00 26 1020.6
20260502160422 23 0.0 0.0 0.00 0.00 0.00 26 1020.4
20260502151922 23 0.0 0.0 0.00 0.00 0.00 27 1020.9
20260502151422 23 0.0 0.0 0.00 0.00 0.00 29 1021.4
20260502150922 23 0.0 0.0 0.00 0.00 0.00 29 1021.5
20260502150422 23 0.0 0.0 0.00 0.00 0.00 26 1021.2
20260502130422 22 0.0 0.0 0.00 0.00 0.00 28 1022.5
20260502123422 22 0.0 0.0 0.00 0.00 0.00 30 1023.2
20260502122922 22 0.0 0.0 0.00 0.00 0.00 30 1023.4
20260502122422 23 0.0 0.0 0.00 0.00 0.00 32 1022.0
20260502121922 22 0.0 0.0 0.00 0.00 0.00 32 1023.6
20260502121432 22 0.0 0.0 0.00 0.00 0.00 32 1023.5
20260502120922 22 0.0 0.0 0.00 0.00 0.00 32 1023.6
20260502120422 22 0.0 0.0 0.00 0.00 0.00 33 1024.0
20260502115922 22 0.0 0.0 0.00 0.00 0.00 28 1023.2
20260502115422 22 0.0 0.0 0.00 0.00 0.00 34 1023.8
20260502114922 22 0.0 0.0 0.00 0.00 0.00 30 1024.2
20260502114422 22 0.0 0.0 0.00 0.00 0.00 33 1023.1
20260502113922 22 0.0 0.0 0.00 0.00 0.00 29 1023.9
20260502113422 22 0.0 0.0 0.00 0.00 0.00 28 1023.5
20260502112922 22 0.0 0.0 0.00 0.00 0.00 31 1024.0
20260502112422 22 0.0 0.0 0.00 0.00 0.00 30 1023.9
20260502111922 22 0.0 0.0 0.00 0.00 0.00 32 1024.2
20260502111422 22 0.0 0.0 0.00 0.00 0.00 32 1024.2
20260502110922 22 0.0 0.0 0.00 0.00 0.00 32 1024.8
20260502110422 22 0.0 0.0 0.00 0.00 0.00 30 1024.7
20260502105922 22 0.0 0.0 0.00 0.00 0.00 31 1023.5
20260502105422 21 0.0 0.0 0.00 0.00 0.00 33 1024.5
20260502104922 21 0.0 0.0 0.00 0.00 0.00 33 1024.2
20260502104422 21 0.0 0.0 0.00 0.00 0.00 35 1024.6
20260502103922 21 0.0 0.0 0.00 0.00 0.00 34 1024.6
20260502103422 21 0.0 0.0 0.00 0.00 0.00 35 1024.8
20260502102922 21 0.0 0.0 0.00 0.00 0.00 33 1024.7
20260502102422 21 0.0 0.0 0.00 0.00 0.00 34 1024.9
20260502101922 21 0.0 0.0 0.00 0.00 0.00 34 1025.0
20260502101422 21 0.0 0.0 0.00 0.00 0.00 34 1025.0
20260502100922 21 0.0 0.0 0.00 0.00 0.00 36 1025.0
20260502100422 21 0.0 0.0 0.00 0.00 0.00 36 1025.0
20260502091422 21 0.0 0.0 0.00 0.00 0.00 32 1025.6
20260502090922 21 0.0 0.0 0.00 0.00 0.00 34 1025.9
20260502090422 21 0.0 0.0 0.00 0.00 0.00 34 1025.8
20260502071422 21 0.0 0.0 0.00 0.00 0.00 35 1026.1
20260502070922 21 0.0 0.0 0.00 0.00 0.00 35 1026.1
20260502070422 21 0.0 0.0 0.00 0.00 0.00 36 1026.2
20260502065922 21 0.0 0.0 0.00 0.00 0.00 36 1026.3
20260502065422 21 0.0 0.0 0.00 0.00 0.00 36 1026.2
20260502064922 21 0.0 0.0 0.00 0.00 0.00 36 1026.3
20260502064422 21 0.0 0.0 0.00 0.00 0.00 36 1026.2
20260502063922 21 0.0 0.0 0.00 0.00 0.00 37 1026.2
20260502063422 21 0.0 0.0 0.00 0.00 0.00 39 1026.1
20260502062922 21 0.0 0.0 0.00 0.00 0.00 39 1026.2
20260502062422 21 0.0 0.0 0.00 0.00 0.00 39 1026.3
20260502061922 21 0.0 0.0 0.00 0.00 0.00 40 1026.3
20260502061422 21 0.0 0.0 0.00 0.00 0.00 40 1026.2
20260502060922 20 0.0 0.0 0.00 0.00 0.00 39 1026.2
20260502060422 20 0.0 0.0 0.00 0.00 0.00 39 1026.3
20260502055922 20 0.0 0.0 0.00 0.00 0.00 39 1026.3
20260502055422 20 0.0 0.0 0.00 0.00 0.00 39 1026.4
20260502054922 20 0.0 0.0 0.00 0.00 0.00 38 1026.0
20260502054422 20 0.0 0.0 0.00 0.00 0.00 39 1026.3
20260502053922 20 0.0 0.0 0.00 0.00 0.00 39 1026.2
20260502053422 20 0.0 0.0 0.00 0.00 0.00 39 1026.5
20260502052922 20 0.0 0.0 0.00 0.00 0.00 39 1026.2
20260502052422 20 0.0 0.0 0.00 0.00 0.00 39 1026.0
20260502051922 20 0.0 0.0 0.00 0.00 0.00 40 1026.3
20260502051422 20 0.0 0.0 0.00 0.00 0.00 40 1026.4
20260502050922 20 0.0 0.0 0.00 0.00 0.00 40 1026.4
20260502050422 19 0.0 0.0 0.00 0.00 0.00 40 1026.5
20260502045922 20 0.0 0.0 0.00 0.00 0.00 40 1026.4
20260502045422 19 0.0 0.0 0.00 0.00 0.00 40 1026.3
20260502044922 19 0.0 0.0 0.00 0.00 0.00 40 1026.4
20260502044422 19 0.0 0.0 0.00 0.00 0.00 40 1026.5
20260502043922 19 0.0 0.0 0.00 0.00 0.00 41 1026.5
20260502043422 19 0.0 0.0 0.00 0.00 0.00 40 1026.6
20260502042922 19 0.0 0.0 0.00 0.00 0.00 40 1026.6
20260502042422 19 0.0 0.0 0.00 0.00 0.00 40 1026.6
20260502041922 18 0.0 0.0 0.00 0.00 0.00 40 1026.5
20260502041422 18 0.0 0.0 0.00 0.00 0.00 40 1026.6
20260502040922 18 0.0 0.0 0.00 0.00 0.00 40 1026.7
20260502040422 18 0.0 0.0 0.00 0.00 0.00 40 1026.6
20260502035922 18 0.0 0.0 0.00 0.00 0.00 40 1026.6
20260502035422 18 0.0 0.0 0.00 0.00 0.00 40 1026.5
20260502034922 18 0.0 0.0 0.00 0.00 0.00 40 1026.5
20260502034421 18 0.0 0.0 0.00 0.00 0.00 40 1026.6
20260502033922 18 0.0 0.0 0.00 0.00 0.00 40 1026.6
20260502033422 18 0.0 0.0 0.00 0.00 0.00 40 1026.6
20260502032921 18 0.0 0.0 0.00 0.00 0.00 40 1026.7
20260502032421 18 0.0 0.0 0.00 0.00 0.00 40 1026.6
20260502031922 18 0.0 0.0 0.00 0.00 0.00 40 1026.7
20260502031421 18 0.0 0.0 0.00 0.00 0.00 40 1026.7
20260502030921 18 0.0 0.0 0.00 0.00 0.00 40 1026.8
20260502030421 18 0.0 0.0 0.00 0.00 0.00 40 1026.6
20260502025922 18 0.0 0.0 0.00 0.00 0.00 40 1026.8
20260502025421 18 0.0 0.0 0.00 0.00 0.00 40 1026.7
20260502024921 18 0.0 0.0 0.00 0.00 0.00 40 1026.8
20260502024421 18 0.0 0.0 0.00 0.00 0.00 40 1026.9
20260502023921 18 0.0 0.0 0.00 0.00 0.00 40 1026.8
20260502023421 18 0.0 0.0 0.00 0.00 0.00 40 1026.9
20260502022921 19 0.0 0.0 0.00 0.00 0.00 39 1026.9
20260502022421 19 0.0 0.0 0.00 0.00 0.00 40 1026.9
20260502021921 19 0.0 0.0 0.00 0.00 0.00 39 1026.9
20260502021421 19 0.0 0.0 0.00 0.00 0.00 39 1027.0
20260502020921 19 0.0 0.0 0.00 0.00 0.00 39 1026.9
20260502020421 19 0.0 0.0 0.00 0.00 0.00 39 1026.7
20260502015921 19 0.0 0.0 0.00 0.00 0.00 39 1026.8
20260502015421 19 0.0 0.0 0.00 0.00 0.00 39 1027.0
20260502014921 19 0.0 0.0 0.00 0.00 0.00 39 1026.9
20260502014421 19 0.0 0.0 0.00 0.00 0.00 39 1027.0
20260502013921 19 0.0 0.0 0.00 0.00 0.00 39 1026.9
20260502013421 19 0.0 0.0 0.00 0.00 0.00 39 1027.0
20260502012921 19 0.0 0.0 0.00 0.00 0.00 39 1026.8
20260502012421 19 0.0 0.0 0.00 0.00 0.00 39 1026.8
20260502011921 19 0.0 0.0 0.00 0.00 0.00 39 1026.9
20260502011422 19 0.0 0.0 0.00 0.00 0.00 39 1027.0
20260502010921 19 0.0 0.0 0.00 0.00 0.00 39 1027.0
20260502010421 19 0.0 0.0 0.00 0.00 0.00 40 1027.1
20260502005921 19 0.0 0.0 0.00 0.00 0.00 39 1027.1
20260502005421 19 0.0 0.0 0.00 0.00 0.00 39 1027.1
20260502004921 19 0.0 0.0 0.00 0.00 0.00 39 1027.1
20260502004421 19 0.0 0.0 0.00 0.00 0.00 39 1027.2
20260502003921 19 0.0 0.0 0.00 0.00 0.00 39 1027.3
20260502003421 19 0.0 0.0 0.00 0.00 0.00 39 1027.2
20260502002921 19 0.0 0.0 0.00 0.00 0.00 39 1027.1
20260502002421 19 0.0 0.0 0.00 0.00 0.00 39 1027.3
20260502001921 19 0.0 0.0 0.00 0.00 0.00 39 1027.2
20260502001421 19 0.0 0.0 0.00 0.00 0.00 39 1027.4
20260502000921 19 0.0 0.0 0.00 0.00 0.00 39 1027.4
20260502000424 19 0.0 0.0 0.00 0.00 0.00 39 1027.3
20260501235921 19 0.0 0.0 0.00 0.00 0.00 39 1027.4
20260501235421 19 0.0 0.0 0.00 0.00 0.00 39 1027.4
20260501234921 19 0.0 0.0 0.00 0.00 0.00 39 1027.4
20260501234421 20 0.0 0.0 0.00 0.00 0.00 39 1027.3
20260501233921 20 0.0 0.0 0.00 0.00 0.00 39 1027.2
20260501233421 19 0.0 0.0 0.00 0.00 0.00 39 1027.3
20260501232921 20 0.0 0.0 0.00 0.00 0.00 39 1027.3
20260501232421 20 0.0 0.0 0.00 0.00 0.00 39 1027.4
20260501231922 20 0.0 0.0 0.00 0.00 0.00 39 1027.3
20260501231421 20 0.0 0.0 0.00 0.00 0.00 39 1027.5
20260501230921 20 0.0 0.0 0.00 0.00 0.00 39 1027.4
20260501230421 20 0.0 0.0 0.00 0.00 0.00 39 1027.4
20260501225921 20 0.0 0.0 0.00 0.00 0.00 39 1027.5
20260501225421 20 0.0 0.0 0.00 0.00 0.00 38 1027.2
20260501224921 20 0.0 0.0 0.00 0.00 0.00 39 1027.4
20260501224421 20 0.0 0.0 0.00 0.00 0.00 38 1027.5
20260501223921 20 0.0 0.0 0.00 0.00 0.00 39 1027.3
20260501223421 20 0.0 0.0 0.00 0.00 0.00 39 1027.5
20260501222921 20 0.0 0.0 0.00 0.00 0.00 39 1027.4
20260501222421 20 0.0 0.0 0.00 0.00 0.00 39 1027.4
20260501221921 20 0.0 0.0 0.00 0.00 0.00 39 1027.5
20260501221421 20 0.0 0.0 0.00 0.00 0.00 39 1027.6
20260501220921 20 0.0 0.0 0.00 0.00 0.00 38 1027.5
20260501220421 20 0.0 0.0 0.00 0.00 0.00 38 1027.5
20260501215921 20 0.0 0.0 0.00 0.00 0.00 38 1027.5
20260501215421 20 0.0 0.0 0.00 0.00 0.00 38 1027.5
20260501214921 20 0.0 0.0 0.00 0.00 0.00 38 1027.6